Time,TemperatureF,DewpointF,PressureIn,WindDirection,WindDirectionDegrees,WindSpeedMPH,WindSpeedGustMPH,Humidity,HourlyPrecipIn,Conditions,Clouds,dailyrainin,SoftwareType,DateUTC
2013-05-06 00:00:00,59.0,57.3,29.86,ENE,68,4.0,-999.0,94,0.06,,,0.36,Wunderground v.1.15,2013-05-06 04:00:00,
2013-05-06 00:05:00,59.0,57.3,29.86,ENE,68,4.0,-999.0,94,0.06,,,0.36,Wunderground v.1.15,2013-05-06 04:05:00,
2013-05-06 00:10:00,59.0,57.3,29.86,ENE,68,4.0,-999.0,94,0.06,,,0.36,Wunderground v.1.15,2013-05-06 04:10:00,
2013-05-06 00:15:00,59.0,57.3,29.86,ENE,68,4.0,-999.0,94,0.04,,,0.36,Wunderground v.1.15,2013-05-06 04:15:00,
2013-05-06 00:20:00,59.0,57.3,29.86,ENE,68,4.0,-999.0,94,0.04,,,0.36,Wunderground v.1.15,2013-05-06 04:20:00,
2013-05-06 00:25:00,59.0,57.3,29.86,ENE,68,4.0,-999.0,94,0.04,,,0.36,Wunderground v.1.15,2013-05-06 04:25:00,
2013-05-06 00:30:00,59.0,57.3,29.86,ENE,68,4.0,-999.0,94,0.04,,,0.36,Wunderground v.1.15,2013-05-06 04:30:00,
2013-05-06 00:35:00,59.0,57.3,29.86,ENE,68,4.0,-999.0,94,0.04,,,0.36,Wunderground v.1.15,2013-05-06 04:35:00,
2013-05-06 00:40:00,59.0,57.3,29.86,ENE,68,4.0,-999.0,94,0.04,,,0.36,Wunderground v.1.15,2013-05-06 04:40:00,
2013-05-06 00:45:00,59.3,57.6,29.86,NE,45,4.0,-999.0,94,0.03,,,0.36,Wunderground v.1.15,2013-05-06 04:45:00,
2013-05-06 00:50:00,59.3,57.6,29.86,NE,45,4.0,-999.0,94,0.03,,,0.36,Wunderground v.1.15,2013-05-06 04:50:00,
2013-05-06 00:55:00,59.3,57.6,29.86,NE,45,4.0,-999.0,94,0.03,,,0.36,Wunderground v.1.15,2013-05-06 04:55:00,
2013-05-06 01:00:00,59.3,57.6,29.86,NE,45,4.0,-999.0,94,0.02,,,0.36,Wunderground v.1.15,2013-05-06 05:00:00,
2013-05-06 01:05:00,59.3,57.6,29.86,NE,45,4.0,-999.0,94,0.02,,,0.36,Wunderground v.1.15,2013-05-06 05:05:00,
2013-05-06 01:10:00,59.3,57.6,29.86,NE,45,4.0,-999.0,94,0.02,,,0.36,Wunderground v.1.15,2013-05-06 05:10:00,
2013-05-06 01:15:00,59.1,57.4,29.86,NE,45,4.0,-999.0,94,0.04,,,0.36,Wunderground v.1.15,2013-05-06 05:15:00,
2013-05-06 01:20:00,59.1,57.4,29.86,NE,45,4.0,-999.0,94,0.04,,,0.36,Wunderground v.1.15,2013-05-06 05:20:00,
2013-05-06 01:25:00,59.1,57.4,29.86,NE,45,4.0,-999.0,94,0.04,,,0.36,Wunderground v.1.15,2013-05-06 05:25:00,
2013-05-06 01:30:00,59.1,57.4,29.86,NE,45,4.0,-999.0,94,0.04,,,0.36,Wunderground v.1.15,2013-05-06 05:30:00,
2013-05-06 01:35:00,59.1,57.4,29.86,NE,45,4.0,-999.0,94,0.04,,,0.36,Wunderground v.1.15,2013-05-06 05:35:00,
2013-05-06 01:40:00,59.1,57.4,29.86,NE,45,4.0,-999.0,94,0.04,,,0.36,Wunderground v.1.15,2013-05-06 05:40:00,
2013-05-06 01:45:00,58.8,57.1,29.86,ENE,68,3.0,-999.0,94,0.05,,,0.36,Wunderground v.1.15,2013-05-06 05:45:00,
2013-05-06 01:50:00,58.8,57.1,29.86,ENE,68,3.0,-999.0,94,0.05,,,0.36,Wunderground v.1.15,2013-05-06 05:50:00,
2013-05-06 01:55:00,58.8,57.1,29.86,ENE,68,3.0,-999.0,94,0.05,,,0.36,Wunderground v.1.15,2013-05-06 05:55:00,
2013-05-06 02:00:00,58.8,57.1,29.86,ENE,68,3.0,-999.0,94,0.05,,,0.36,Wunderground v.1.15,2013-05-06 06:00:00,
2013-05-06 02:05:00,58.8,57.1,29.86,ENE,68,3.0,-999.0,94,0.05,,,0.36,Wunderground v.1.15,2013-05-06 06:05:00,
2013-05-06 02:10:00,58.8,57.1,29.86,ENE,68,3.0,-999.0,94,0.05,,,0.36,Wunderground v.1.15,2013-05-06 06:10:00,
2013-05-06 02:15:00,58.4,57.0,29.85,NE,45,2.0,-999.0,95,0.05,,,0.36,Wunderground v.1.15,2013-05-06 06:15:00,
2013-05-06 02:20:00,58.4,57.0,29.85,NE,45,2.0,-999.0,95,0.05,,,0.36,Wunderground v.1.15,2013-05-06 06:20:00,
2013-05-06 02:25:00,58.4,57.0,29.85,NE,45,2.0,-999.0,95,0.05,,,0.36,Wunderground v.1.15,2013-05-06 06:25:00,
2013-05-06 02:30:00,58.4,57.0,29.85,NE,45,2.0,-999.0,95,0.05,,,0.36,Wunderground v.1.15,2013-05-06 06:30:00,
2013-05-06 02:35:00,58.4,57.0,29.85,NE,45,2.0,-999.0,95,0.05,,,0.36,Wunderground v.1.15,2013-05-06 06:35:00,
2013-05-06 02:40:00,58.4,57.0,29.85,NE,45,2.0,-999.0,95,0.05,,,0.36,Wunderground v.1.15,2013-05-06 06:40:00,
2013-05-06 02:45:00,58.5,57.1,29.84,NE,45,2.0,-999.0,95,0.04,,,0.36,Wunderground v.1.15,2013-05-06 06:45:00,
2013-05-06 02:50:00,58.5,57.1,29.84,NE,45,2.0,-999.0,95,0.04,,,0.36,Wunderground v.1.15,2013-05-06 06:50:00,
2013-05-06 02:55:00,58.5,57.1,29.84,NE,45,2.0,-999.0,95,0.04,,,0.36,Wunderground v.1.15,2013-05-06 06:55:00,
2013-05-06 03:00:00,58.5,57.1,29.84,NE,45,2.0,-999.0,95,0.04,,,0.36,Wunderground v.1.15,2013-05-06 07:00:00,
2013-05-06 03:05:00,58.5,57.1,29.84,NE,45,2.0,-999.0,95,0.04,,,0.36,Wunderground v.1.15,2013-05-06 07:05:00,
2013-05-06 03:10:00,58.5,57.1,29.84,NE,45,2.0,-999.0,95,0.04,,,0.36,Wunderground v.1.15,2013-05-06 07:10:00,
2013-05-06 03:15:00,58.6,57.2,29.83,NE,45,3.0,-999.0,95,0.05,,,0.36,Wunderground v.1.15,2013-05-06 07:15:00,
2013-05-06 03:20:00,58.6,57.2,29.83,NE,45,3.0,-999.0,95,0.05,,,0.36,Wunderground v.1.15,2013-05-06 07:20:00,
2013-05-06 03:25:00,58.6,57.2,29.83,NE,45,3.0,-999.0,95,0.05,,,0.36,Wunderground v.1.15,2013-05-06 07:25:00,
2013-05-06 03:30:00,58.6,57.2,29.83,NE,45,3.0,-999.0,95,0.05,,,0.36,Wunderground v.1.15,2013-05-06 07:30:00,
2013-05-06 03:35:00,58.6,57.2,29.83,NE,45,3.0,-999.0,95,0.05,,,0.36,Wunderground v.1.15,2013-05-06 07:35:00,
2013-05-06 03:40:00,58.6,57.2,29.83,NE,45,3.0,-999.0,95,0.05,,,0.36,Wunderground v.1.15,2013-05-06 07:40:00,
2013-05-06 03:45:00,58.6,57.2,29.83,NE,45,3.0,-999.0,95,0.04,,,0.36,Wunderground v.1.15,2013-05-06 07:45:00,
2013-05-06 03:50:00,58.6,57.2,29.83,NE,45,3.0,-999.0,95,0.04,,,0.36,Wunderground v.1.15,2013-05-06 07:50:00,
2013-05-06 03:55:00,58.6,57.2,29.83,NE,45,3.0,-999.0,95,0.04,,,0.36,Wunderground v.1.15,2013-05-06 07:55:00,
2013-05-06 04:00:00,58.6,57.2,29.83,NE,45,3.0,-999.0,95,0.04,,,0.36,Wunderground v.1.15,2013-05-06 08:00:00,
2013-05-06 04:05:00,58.6,57.2,29.83,NE,45,3.0,-999.0,95,0.04,,,0.36,Wunderground v.1.15,2013-05-06 08:05:00,
2013-05-06 04:10:00,58.6,57.2,29.83,NE,45,3.0,-999.0,95,0.04,,,0.36,Wunderground v.1.15,2013-05-06 08:10:00,
2013-05-06 04:15:00,58.6,57.5,29.84,NNE,23,2.0,-999.0,96,0.03,,,0.36,Wunderground v.1.15,2013-05-06 08:15:00,
2013-05-06 04:20:00,58.6,57.5,29.84,NNE,23,2.0,-999.0,96,0.03,,,0.36,Wunderground v.1.15,2013-05-06 08:20:00,
2013-05-06 04:25:00,58.6,57.5,29.84,NNE,23,2.0,-999.0,96,0.03,,,0.36,Wunderground v.1.15,2013-05-06 08:25:00,
2013-05-06 04:30:00,58.6,57.5,29.84,NNE,23,2.0,-999.0,96,0.03,,,0.36,Wunderground v.1.15,2013-05-06 08:30:00,
2013-05-06 04:35:00,58.6,57.5,29.84,NNE,23,2.0,-999.0,96,0.03,,,0.36,Wunderground v.1.15,2013-05-06 08:35:00,
2013-05-06 04:40:00,58.6,57.5,29.84,NNE,23,2.0,-999.0,96,0.03,,,0.36,Wunderground v.1.15,2013-05-06 08:40:00,
2013-05-06 04:45:00,56.9,55.5,29.85,WSW,248,2.0,-999.0,95,0.04,,,0.36,Wunderground v.1.15,2013-05-06 08:45:00,
2013-05-06 04:50:00,56.9,55.5,29.85,WSW,248,2.0,-999.0,95,0.04,,,0.36,Wunderground v.1.15,2013-05-06 08:50:00,
2013-05-06 04:55:00,56.9,55.5,29.85,WSW,248,2.0,-999.0,95,0.04,,,0.36,Wunderground v.1.15,2013-05-06 08:55:00,
2013-05-06 05:00:00,56.9,55.5,29.85,WSW,248,2.0,-999.0,95,0.04,,,0.36,Wunderground v.1.15,2013-05-06 09:00:00,
2013-05-06 05:05:00,56.9,55.5,29.85,WSW,248,2.0,-999.0,95,0.04,,,0.36,Wunderground v.1.15,2013-05-06 09:05:00,
2013-05-06 05:10:00,56.9,55.5,29.85,WSW,248,2.0,-999.0,95,0.04,,,0.36,Wunderground v.1.15,2013-05-06 09:10:00,
2013-05-06 05:15:00,56.7,55.6,29.84,West,270,1.0,-999.0,96,0.04,,,0.36,Wunderground v.1.15,2013-05-06 09:15:00,
2013-05-06 05:20:00,56.7,55.6,29.84,West,270,1.0,-999.0,96,0.04,,,0.36,Wunderground v.1.15,2013-05-06 09:20:00,
2013-05-06 05:25:00,56.7,55.6,29.84,West,270,1.0,-999.0,96,0.04,,,0.36,Wunderground v.1.15,2013-05-06 09:25:00,
2013-05-06 05:30:00,56.7,55.6,29.84,West,270,1.0,-999.0,96,0.04,,,0.36,Wunderground v.1.15,2013-05-06 09:30:00,
2013-05-06 05:35:00,56.7,55.6,29.84,West,270,1.0,-999.0,96,0.04,,,0.36,Wunderground v.1.15,2013-05-06 09:35:00,
2013-05-06 05:40:00,56.7,55.6,29.84,West,270,1.0,-999.0,96,0.04,,,0.36,Wunderground v.1.15,2013-05-06 09:40:00,
2013-05-06 05:45:00,56.7,55.6,29.83,WSW,248,0.0,-999.0,96,0.05,,,0.36,Wunderground v.1.15,2013-05-06 09:45:00,
2013-05-06 05:50:00,56.7,55.6,29.83,WSW,248,0.0,-999.0,96,0.05,,,0.36,Wunderground v.1.15,2013-05-06 09:50:00,
2013-05-06 05:55:00,56.7,55.6,29.83,WSW,248,0.0,-999.0,96,0.05,,,0.36,Wunderground v.1.15,2013-05-06 09:55:00,
2013-05-06 06:00:00,56.7,55.6,29.83,WSW,248,0.0,-999.0,96,0.05,,,0.36,Wunderground v.1.15,2013-05-06 10:00:00,
2013-05-06 06:05:00,56.7,55.6,29.83,WSW,248,0.0,-999.0,96,0.05,,,0.36,Wunderground v.1.15,2013-05-06 10:05:00,
2013-05-06 06:10:00,56.7,55.6,29.83,WSW,248,0.0,-999.0,96,0.05,,,0.36,Wunderground v.1.15,2013-05-06 10:10:00,
2013-05-06 06:15:00,57.0,55.9,29.84,WSW,248,1.0,-999.0,96,0.05,,,0.36,Wunderground v.1.15,2013-05-06 10:15:00,
2013-05-06 06:20:00,57.0,55.9,29.84,WSW,248,1.0,-999.0,96,0.05,,,0.36,Wunderground v.1.15,2013-05-06 10:20:00,
2013-05-06 06:25:00,57.0,55.9,29.84,WSW,248,1.0,-999.0,96,0.05,,,0.36,Wunderground v.1.15,2013-05-06 10:25:00,
2013-05-06 06:30:00,57.0,55.9,29.84,WSW,248,1.0,-999.0,96,0.05,,,0.36,Wunderground v.1.15,2013-05-06 10:30:00,
2013-05-06 06:35:00,57.0,55.9,29.84,WSW,248,1.0,-999.0,96,0.05,,,0.36,Wunderground v.1.15,2013-05-06 10:35:00,
2013-05-06 06:40:00,57.0,55.9,29.84,WSW,248,1.0,-999.0,96,0.05,,,0.36,Wunderground v.1.15,2013-05-06 10:40:00,
2013-05-06 06:45:00,57.0,55.9,29.85,WSW,248,0.0,-999.0,96,0.05,,,0.36,Wunderground v.1.15,2013-05-06 10:45:00,
2013-05-06 06:50:00,57.0,55.9,29.85,WSW,248,0.0,-999.0,96,0.05,,,0.36,Wunderground v.1.15,2013-05-06 10:50:00,
2013-05-06 06:55:00,57.0,55.9,29.85,WSW,248,0.0,-999.0,96,0.05,,,0.36,Wunderground v.1.15,2013-05-06 10:55:00,
2013-05-06 07:00:00,57.0,55.9,29.85,WSW,248,0.0,-999.0,96,0.05,,,0.36,Wunderground v.1.15,2013-05-06 11:00:00,
2013-05-06 07:05:00,57.0,55.9,29.85,WSW,248,0.0,-999.0,96,0.05,,,0.36,Wunderground v.1.15,2013-05-06 11:05:00,
2013-05-06 07:10:00,57.0,55.9,29.85,WSW,248,0.0,-999.0,96,0.05,,,0.36,Wunderground v.1.15,2013-05-06 11:10:00,
2013-05-06 07:15:00,57.3,56.2,29.86,NNE,23,0.0,-999.0,96,0.06,,,0.36,Wunderground v.1.15,2013-05-06 11:15:00,
2013-05-06 07:20:00,57.3,56.2,29.86,NNE,23,0.0,-999.0,96,0.06,,,0.36,Wunderground v.1.15,2013-05-06 11:20:00,
2013-05-06 07:25:00,57.3,56.2,29.86,NNE,23,0.0,-999.0,96,0.06,,,0.36,Wunderground v.1.15,2013-05-06 11:25:00,
2013-05-06 07:30:00,57.3,56.2,29.86,NNE,23,0.0,-999.0,96,0.06,,,0.36,Wunderground v.1.15,2013-05-06 11:30:00,
2013-05-06 07:35:00,57.3,56.2,29.86,NNE,23,0.0,-999.0,96,0.06,,,0.36,Wunderground v.1.15,2013-05-06 11:35:00,
2013-05-06 07:40:00,57.3,56.2,29.86,NNE,23,0.0,-999.0,96,0.06,,,0.36,Wunderground v.1.15,2013-05-06 11:40:00,
2013-05-06 07:45:00,57.8,57.0,29.87,East,90,0.0,-999.0,97,0.06,,,0.36,Wunderground v.1.15,2013-05-06 11:45:00,
2013-05-06 07:50:00,57.8,57.0,29.87,East,90,0.0,-999.0,97,0.06,,,0.36,Wunderground v.1.15,2013-05-06 11:50:00,
2013-05-06 07:55:00,57.8,57.0,29.87,East,90,0.0,-999.0,97,0.06,,,0.36,Wunderground v.1.15,2013-05-06 11:55:00,
2013-05-06 08:00:00,57.8,57.0,29.87,East,90,0.0,-999.0,97,0.06,,,0.36,Wunderground v.1.15,2013-05-06 12:00:00,
2013-05-06 08:30:00,59.9,59.0,29.88,WSW,237,0.0,0.0,97,0.04,,,0.38,Wunderground v.1.15,2013-05-06 12:30:00,
2013-05-06 08:40:00,60.9,60.0,29.88,East,82,0.0,0.0,97,0.04,,,0.39,Wunderground v.1.15,2013-05-06 12:40:00,
2013-05-06 08:45:00,60.9,60.0,29.87,NNW,342,1.0,2.0,97,0.06,,,0.40,Wunderground v.1.15,2013-05-06 12:45:00,
2013-05-06 08:50:00,60.9,59.8,29.87,NE,54,1.0,2.0,96,0.06,,,0.40,Wunderground v.1.15,2013-05-06 12:50:00,
2013-05-06 08:55:00,61.1,60.0,29.87,NNE,30,1.0,2.0,96,0.05,,,0.40,Wunderground v.1.15,2013-05-06 12:55:00,
2013-05-06 09:00:00,61.2,60.1,29.88,SE,131,1.0,1.0,96,0.05,,,0.41,Wunderground v.1.15,2013-05-06 13:00:00,
2013-05-06 09:05:00,61.1,60.0,29.88,NNE,32,1.0,1.0,96,0.05,,,0.41,Wunderground v.1.15,2013-05-06 13:05:00,
2013-05-06 09:10:00,60.8,59.4,29.87,SSE,150,1.0,1.0,95,0.06,,,0.42,Wunderground v.1.15,2013-05-06 13:10:00,
2013-05-06 09:15:00,60.8,59.4,29.87,ESE,115,1.0,1.0,95,0.06,,,0.42,Wunderground v.1.15,2013-05-06 13:15:00,
2013-05-06 09:20:00,61.0,59.9,29.87,NE,36,0.0,2.0,96,0.04,,,0.42,Wunderground v.1.15,2013-05-06 13:20:00,
2013-05-06 09:25:00,61.2,59.8,29.88,North,9,1.0,2.0,95,0.04,,,0.43,Wunderground v.1.15,2013-05-06 13:25:00,
2013-05-06 09:30:00,61.4,60.0,29.88,NNE,27,1.0,1.0,95,0.04,,,0.43,Wunderground v.1.15,2013-05-06 13:30:00,
2013-05-06 09:35:00,61.4,60.0,29.88,East,86,0.0,1.0,95,0.04,,,0.43,Wunderground v.1.15,2013-05-06 13:35:00,
2013-05-06 09:40:00,61.4,60.0,29.88,ENE,65,0.0,0.0,95,0.04,,,0.44,Wunderground v.1.15,2013-05-06 13:40:00,
2013-05-06 09:45:00,61.5,60.1,29.88,ENE,65,0.0,0.0,95,0.04,,,0.44,Wunderground v.1.15,2013-05-06 13:45:00,
2013-05-06 09:50:00,61.7,60.3,29.88,SSE,161,0.0,0.0,95,0.04,,,0.44,Wunderground v.1.15,2013-05-06 13:50:00,
2013-05-06 09:55:00,61.6,60.2,29.88,ESE,116,0.0,0.0,95,0.04,,,0.44,Wunderground v.1.15,2013-05-06 13:55:00,
2013-05-06 10:00:00,61.6,60.2,29.88,ESE,116,0.0,0.0,95,0.00,,,0.44,Wunderground v.1.15,2013-05-06 14:00:00,
2013-05-06 10:05:00,61.5,60.1,29.88,ESE,116,0.0,0.0,95,0.00,,,0.45,Wunderground v.1.15,2013-05-06 14:05:00,
2013-05-06 10:10:00,61.5,60.1,29.88,ESE,117,0.0,0.0,95,0.00,,,0.45,Wunderground v.1.15,2013-05-06 14:10:00,
2013-05-06 10:15:00,61.6,60.2,29.88,ESE,117,0.0,0.0,95,0.00,,,0.45,Wunderground v.1.15,2013-05-06 14:15:00,
2013-05-06 10:20:00,61.6,60.2,29.88,ESE,117,0.0,0.0,95,0.04,,,0.46,Wunderground v.1.15,2013-05-06 14:20:00,
2013-05-06 10:25:00,61.7,60.3,29.88,ESE,117,0.0,0.0,95,0.04,,,0.46,Wunderground v.1.15,2013-05-06 14:25:00,
2013-05-06 10:30:00,61.9,60.5,29.88,ESE,117,0.0,0.0,95,0.04,,,0.46,Wunderground v.1.15,2013-05-06 14:30:00,
2013-05-06 10:35:00,62.0,60.6,29.89,ESE,117,0.0,0.0,95,0.04,,,0.46,Wunderground v.1.15,2013-05-06 14:35:00,
2013-05-06 10:40:00,62.0,60.3,29.88,ESE,117,0.0,0.0,94,0.00,,,0.46,Wunderground v.1.15,2013-05-06 14:40:00,
2013-05-06 10:45:00,62.2,60.8,29.89,ESE,117,0.0,0.0,95,0.00,,,0.47,Wunderground v.1.15,2013-05-06 14:45:00,
2013-05-06 10:50:00,62.4,60.7,29.88,ESE,117,0.0,0.0,94,0.00,,,0.47,Wunderground v.1.15,2013-05-06 14:50:00,
2013-05-06 11:00:00,62.7,60.9,29.88,SSE,153,0.0,2.0,94,0.00,,,0.47,Wunderground v.1.15,2013-05-06 15:00:00,
2013-05-06 11:05:00,63.1,61.3,29.88,ENE,76,0.0,2.0,94,0.04,,,0.48,Wunderground v.1.15,2013-05-06 15:05:00,
2013-05-06 11:10:00,63.0,60.9,29.88,South,175,0.0,0.0,93,0.04,,,0.48,Wunderground v.1.15,2013-05-06 15:10:00,
2013-05-06 11:15:00,62.9,60.8,29.88,South,175,0.0,0.0,93,0.04,,,0.48,Wunderground v.1.15,2013-05-06 15:15:00,
2013-05-06 11:20:00,63.0,60.9,29.88,South,175,0.0,0.0,93,0.00,,,0.48,Wunderground v.1.15,2013-05-06 15:20:00,
2013-05-06 11:25:00,63.2,61.1,29.88,South,190,0.0,1.0,93,0.00,,,0.48,Wunderground v.1.15,2013-05-06 15:25:00,
2013-05-06 11:35:00,63.7,61.6,29.88,NNW,341,0.0,2.0,93,0.00,,,0.49,Wunderground v.1.15,2013-05-06 15:35:00,
2013-05-06 11:40:00,63.9,61.5,29.88,South,170,0.0,4.0,92,0.00,,,0.49,Wunderground v.1.15,2013-05-06 15:40:00,
2013-05-06 11:45:00,63.9,61.2,29.88,SE,132,0.0,4.0,91,0.00,,,0.49,Wunderground v.1.15,2013-05-06 15:45:00,
2013-05-06 11:50:00,64.0,61.0,29.88,ENE,76,1.0,1.0,90,0.00,,,0.50,Wunderground v.1.15,2013-05-06 15:50:00,
2013-05-06 11:55:00,64.2,61.5,29.88,ENE,76,0.0,1.0,91,0.00,,,0.50,Wunderground v.1.15,2013-05-06 15:55:00,
2013-05-06 12:00:00,64.4,61.4,29.88,SE,146,0.0,0.0,90,0.00,,,0.50,Wunderground v.1.15,2013-05-06 16:00:00,
2013-05-06 12:05:00,64.7,61.7,29.87,SE,146,0.0,1.0,90,0.00,,,0.50,Wunderground v.1.15,2013-05-06 16:05:00,
2013-05-06 12:10:00,65.0,61.7,29.87,NNE,28,0.0,1.0,89,0.00,,,0.51,Wunderground v.1.15,2013-05-06 16:10:00,
2013-05-06 12:15:00,65.2,62.2,29.87,NNE,26,0.0,1.0,90,0.00,,,0.51,Wunderground v.1.15,2013-05-06 16:15:00,
2013-05-06 12:20:00,65.9,62.6,29.87,NNE,32,0.0,0.0,89,0.07,,,0.52,Wunderground v.1.15,2013-05-06 16:20:00,
2013-05-06 12:25:00,66.5,62.5,29.86,SSE,161,0.0,0.0,87,0.07,,,0.52,Wunderground v.1.15,2013-05-06 16:25:00,
2013-05-06 12:30:00,66.9,62.6,29.86,SE,144,0.0,0.0,86,0.05,,,0.53,Wunderground v.1.15,2013-05-06 16:30:00,
2013-05-06 12:35:00,67.2,62.5,29.85,SSE,165,0.0,2.0,85,0.05,,,0.53,Wunderground v.1.15,2013-05-06 16:35:00,
2013-05-06 12:40:00,67.7,63.4,29.85,NE,42,1.0,2.0,86,0.05,,,0.53,Wunderground v.1.15,2013-05-06 16:40:00,
2013-05-06 13:00:00,66.5,61.5,29.85,NE,45,0.0,-999.0,84,0.05,,,0.72,Wunderground v.1.15,2013-05-06 17:00:00,
2013-05-06 13:05:00,66.5,61.5,29.85,NE,45,0.0,-999.0,84,0.05,,,0.72,Wunderground v.1.15,2013-05-06 17:05:00,
2013-05-06 13:10:00,66.5,61.5,29.85,NE,45,0.0,-999.0,84,0.05,,,0.72,Wunderground v.1.15,2013-05-06 17:10:00,
2013-05-06 13:15:00,69.0,60.7,29.83,West,270,1.0,-999.0,75,0.04,,,0.72,Wunderground v.1.15,2013-05-06 17:15:00,
2013-05-06 13:20:00,69.0,60.7,29.83,West,270,1.0,-999.0,75,0.04,,,0.72,Wunderground v.1.15,2013-05-06 17:20:00,
2013-05-06 13:25:00,69.0,60.7,29.83,West,270,1.0,-999.0,75,0.04,,,0.72,Wunderground v.1.15,2013-05-06 17:25:00,
2013-05-06 13:30:00,69.0,60.7,29.83,West,270,1.0,-999.0,75,0.04,,,0.72,Wunderground v.1.15,2013-05-06 17:30:00,
2013-05-06 13:35:00,69.0,60.7,29.83,West,270,1.0,-999.0,75,0.04,,,0.72,Wunderground v.1.15,2013-05-06 17:35:00,
2013-05-06 13:40:00,69.0,60.7,29.83,West,270,1.0,-999.0,75,0.04,,,0.72,Wunderground v.1.15,2013-05-06 17:40:00,
2013-05-06 13:45:00,69.2,59.0,29.83,WNW,293,2.0,-999.0,70,0.05,,,0.72,Wunderground v.1.15,2013-05-06 17:45:00,
2013-05-06 13:50:00,69.2,59.0,29.83,WNW,293,2.0,-999.0,70,0.05,,,0.72,Wunderground v.1.15,2013-05-06 17:50:00,
2013-05-06 13:55:00,69.2,59.0,29.83,WNW,293,2.0,-999.0,70,0.05,,,0.72,Wunderground v.1.15,2013-05-06 17:55:00,
2013-05-06 14:00:00,69.2,59.0,29.83,WNW,293,2.0,-999.0,70,0.05,,,0.72,Wunderground v.1.15,2013-05-06 18:00:00,
2013-05-06 14:05:00,69.2,59.0,29.83,WNW,293,2.0,-999.0,70,0.05,,,0.72,Wunderground v.1.15,2013-05-06 18:05:00,
2013-05-06 14:10:00,69.2,59.0,29.83,WNW,293,2.0,-999.0,70,0.05,,,0.72,Wunderground v.1.15,2013-05-06 18:10:00,
2013-05-06 14:15:00,69.7,60.3,29.82,West,270,2.0,-999.0,72,0.06,,,0.72,Wunderground v.1.15,2013-05-06 18:15:00,
2013-05-06 14:20:00,69.7,60.3,29.82,West,270,2.0,-999.0,72,0.06,,,0.72,Wunderground v.1.15,2013-05-06 18:20:00,
2013-05-06 14:25:00,69.7,60.3,29.82,West,270,2.0,-999.0,72,0.06,,,0.72,Wunderground v.1.15,2013-05-06 18:25:00,
2013-05-06 14:30:00,69.7,60.3,29.82,West,270,2.0,-999.0,72,0.06,,,0.72,Wunderground v.1.15,2013-05-06 18:30:00,
2013-05-06 14:35:00,69.7,60.3,29.82,West,270,2.0,-999.0,72,0.06,,,0.72,Wunderground v.1.15,2013-05-06 18:35:00,
2013-05-06 14:40:00,69.7,60.3,29.82,West,270,2.0,-999.0,72,0.06,,,0.72,Wunderground v.1.15,2013-05-06 18:40:00,
2013-05-06 14:45:00,69.7,59.1,29.82,WNW,293,1.0,-999.0,69,0.05,,,0.72,Wunderground v.1.15,2013-05-06 18:45:00,
2013-05-06 14:50:00,69.7,59.1,29.82,WNW,293,1.0,-999.0,69,0.05,,,0.72,Wunderground v.1.15,2013-05-06 18:50:00,
2013-05-06 14:55:00,69.7,59.1,29.82,WNW,293,1.0,-999.0,69,0.05,,,0.72,Wunderground v.1.15,2013-05-06 18:55:00,
2013-05-06 15:00:00,69.7,59.1,29.82,WNW,293,1.0,-999.0,69,0.05,,,0.72,Wunderground v.1.15,2013-05-06 19:00:00,
2013-05-06 15:05:00,69.7,59.1,29.82,WNW,293,1.0,-999.0,69,0.05,,,0.72,Wunderground v.1.15,2013-05-06 19:05:00,
2013-05-06 15:10:00,69.7,59.1,29.82,WNW,293,1.0,-999.0,69,0.05,,,0.72,Wunderground v.1.15,2013-05-06 19:10:00,
2013-05-06 15:15:00,68.5,59.9,29.81,WSW,248,4.0,-999.0,74,0.05,,,0.72,Wunderground v.1.15,2013-05-06 19:15:00,
2013-05-06 15:20:00,68.5,59.9,29.81,WSW,248,4.0,-999.0,74,0.05,,,0.72,Wunderground v.1.15,2013-05-06 19:20:00,
2013-05-06 15:25:00,68.5,59.9,29.81,WSW,248,4.0,-999.0,74,0.05,,,0.72,Wunderground v.1.15,2013-05-06 19:25:00,
2013-05-06 15:30:00,68.5,59.9,29.81,WSW,248,4.0,-999.0,74,0.05,,,0.72,Wunderground v.1.15,2013-05-06 19:30:00,
2013-05-06 15:35:00,68.5,59.9,29.81,WSW,248,4.0,-999.0,74,0.05,,,0.72,Wunderground v.1.15,2013-05-06 19:35:00,
2013-05-06 15:40:00,68.5,59.9,29.81,WSW,248,4.0,-999.0,74,0.05,,,0.72,Wunderground v.1.15,2013-05-06 19:40:00,
2013-05-06 15:45:00,67.7,58.3,29.81,WSW,248,2.0,-999.0,72,0.07,,,0.72,Wunderground v.1.15,2013-05-06 19:45:00,
2013-05-06 15:50:00,67.7,58.3,29.81,WSW,248,2.0,-999.0,72,0.07,,,0.72,Wunderground v.1.15,2013-05-06 19:50:00,
2013-05-06 15:55:00,67.7,58.3,29.81,WSW,248,2.0,-999.0,72,0.07,,,0.72,Wunderground v.1.15,2013-05-06 19:55:00,
2013-05-06 16:00:00,67.7,58.3,29.81,WSW,248,2.0,-999.0,72,0.07,,,0.72,Wunderground v.1.15,2013-05-06 20:00:00,
2013-05-06 16:15:00,68.1,58.7,29.81,West,259,3.0,4.0,72,0.06,,,1.04,Wunderground v.1.15,2013-05-06 20:15:00,
2013-05-06 16:20:00,68.9,59.1,29.81,South,173,3.0,4.0,71,0.04,,,1.04,Wunderground v.1.15,2013-05-06 20:20:00,
2013-05-06 16:25:00,69.1,59.3,29.81,WSW,251,3.0,3.0,71,0.00,,,1.04,Wunderground v.1.15,2013-05-06 20:25:00,
2013-05-06 16:30:00,69.2,59.0,29.81,SSW,192,3.0,3.0,70,0.00,,,1.04,Wunderground v.1.15,2013-05-06 20:30:00,
2013-05-06 16:35:00,69.7,58.7,29.81,WSW,256,2.0,2.0,68,0.00,,,1.04,Wunderground v.1.15,2013-05-06 20:35:00,
2013-05-06 16:40:00,70.2,58.7,29.81,West,280,1.0,4.0,67,0.00,,,1.04,Wunderground v.1.15,2013-05-06 20:40:00,
2013-05-06 16:50:00,70.8,59.3,29.81,WNW,284,1.0,4.0,67,0.00,,,1.04,Wunderground v.1.15,2013-05-06 20:50:00,
2013-05-06 16:55:00,70.8,58.4,29.81,West,281,2.0,2.0,65,0.00,,,1.04,Wunderground v.1.15,2013-05-06 20:55:00,
2013-05-06 17:00:00,70.9,59.0,29.81,WSW,250,2.0,4.0,66,0.00,,,1.04,Wunderground v.1.15,2013-05-06 21:00:00,
2013-05-06 17:05:00,71.2,58.0,29.81,WSW,240,2.0,4.0,63,0.00,,,1.04,Wunderground v.1.15,2013-05-06 21:05:00,
2013-05-06 17:10:00,71.2,57.1,29.81,WNW,284,2.0,2.0,61,0.00,,,1.04,Wunderground v.1.15,2013-05-06 21:10:00,
2013-05-06 17:15:00,70.6,56.0,29.81,SW,222,2.0,2.0,60,0.00,,,1.04,Wunderground v.1.15,2013-05-06 21:15:00,
2013-05-06 17:20:00,69.7,56.1,29.81,WSW,252,2.0,4.0,62,0.00,,,1.04,Wunderground v.1.15,2013-05-06 21:20:00,
2013-05-06 17:50:00,71.3,53.8,29.81,West,273,1.0,1.0,54,0.00,,,1.04,Wunderground v.1.15,2013-05-06 21:50:00,
2013-05-06 18:50:00,68.9,51.1,29.82,West,266,3.0,6.0,53,0.00,,,1.04,Wunderground v.1.15,2013-05-06 22:50:00,
2013-05-06 18:55:00,68.3,51.0,29.82,West,269,4.0,6.0,54,0.00,,,1.04,Wunderground v.1.15,2013-05-06 22:55:00,
2013-05-06 19:00:00,68.3,51.5,29.82,WSW,257,4.0,4.0,55,0.00,,,1.04,Wunderground v.1.15,2013-05-06 23:00:00,
2013-05-06 19:05:00,68.1,50.8,29.82,West,269,4.0,6.0,54,0.00,,,1.04,Wunderground v.1.15,2013-05-06 23:05:00,
2013-05-06 19:10:00,67.9,50.6,29.82,SW,217,4.0,4.0,54,0.00,,,1.04,Wunderground v.1.15,2013-05-06 23:10:00,
2013-05-06 19:15:00,67.9,51.1,29.83,WSW,257,3.0,5.0,55,0.00,,,1.04,Wunderground v.1.15,2013-05-06 23:15:00,
2013-05-06 19:20:00,67.8,51.0,29.83,West,273,2.0,6.0,55,0.00,,,1.04,Wunderground v.1.15,2013-05-06 23:20:00,
2013-05-06 19:25:00,67.4,50.2,29.83,WSW,249,2.0,6.0,54,0.00,,,1.04,Wunderground v.1.15,2013-05-06 23:25:00,
2013-05-06 19:30:00,66.8,49.6,29.83,WSW,237,2.0,6.0,54,0.00,,,1.04,Wunderground v.1.15,2013-05-06 23:30:00,
2013-05-06 19:35:00,66.5,50.3,29.83,West,272,1.0,6.0,56,0.00,,,1.04,Wunderground v.1.15,2013-05-06 23:35:00,
2013-05-06 19:40:00,66.1,50.4,29.83,West,266,1.0,6.0,57,0.00,,,1.04,Wunderground v.1.15,2013-05-06 23:40:00,
2013-05-06 19:45:00,65.7,50.5,29.83,WSW,252,1.0,6.0,58,0.00,,,1.04,Wunderground v.1.15,2013-05-06 23:45:00,
2013-05-06 19:50:00,65.2,51.0,29.83,West,260,2.0,6.0,60,0.00,,,1.04,Wunderground v.1.15,2013-05-06 23:50:00,
2013-05-06 19:55:00,64.8,51.0,29.83,West,260,2.0,6.0,61,0.00,,,1.04,Wunderground v.1.15,2013-05-06 23:55:00,
2013-05-06 20:05:00,63.9,50.6,29.84,West,261,1.0,6.0,62,0.00,,,1.04,Wunderground v.1.15,2013-05-07 00:05:00,
2013-05-06 20:10:00,63.5,51.1,29.84,West,261,1.0,1.0,64,0.00,,,1.04,Wunderground v.1.15,2013-05-07 00:10:00,
2013-05-06 20:15:00,63.0,50.2,29.84,West,261,1.0,6.0,63,0.00,,,1.04,Wunderground v.1.15,2013-05-07 00:15:00,
2013-05-06 20:20:00,62.7,51.2,29.84,West,261,1.0,1.0,66,0.00,,,1.04,Wunderground v.1.15,2013-05-07 00:20:00,
2013-05-06 20:25:00,62.3,50.8,29.84,West,261,0.0,6.0,66,0.00,,,1.04,Wunderground v.1.15,2013-05-07 00:25:00,
2013-05-06 20:30:00,62.0,50.9,29.84,West,261,0.0,6.0,67,0.00,,,1.04,Wunderground v.1.15,2013-05-07 00:30:00,
2013-05-06 21:00:00,59.4,50.7,29.85,N/A,-737280,0.0,-999.0,73,0.00,,,1.04,Wunderground v.1.15,2013-05-07 01:00:00,
2013-05-06 21:05:00,59.4,50.7,29.85,N/A,-737280,0.0,-999.0,73,0.00,,,1.04,Wunderground v.1.15,2013-05-07 01:05:00,
2013-05-06 21:10:00,59.4,50.7,29.85,N/A,-737280,0.0,-999.0,73,0.00,,,1.04,Wunderground v.1.15,2013-05-07 01:10:00,
2013-05-06 21:15:00,58.5,50.6,29.86,West,270,0.0,-999.0,75,0.00,,,1.04,Wunderground v.1.15,2013-05-07 01:15:00,
2013-05-06 21:20:00,58.5,50.6,29.86,West,270,0.0,-999.0,75,0.00,,,1.04,Wunderground v.1.15,2013-05-07 01:20:00,
2013-05-06 21:25:00,58.5,50.6,29.86,West,270,0.0,-999.0,75,0.00,,,1.04,Wunderground v.1.15,2013-05-07 01:25:00,
2013-05-06 21:30:00,58.5,50.6,29.86,West,270,0.0,-999.0,75,0.00,,,1.04,Wunderground v.1.15,2013-05-07 01:30:00,
2013-05-06 21:35:00,58.5,50.6,29.86,West,270,0.0,-999.0,75,0.00,,,1.04,Wunderground v.1.15,2013-05-07 01:35:00,
2013-05-06 21:40:00,58.5,50.6,29.86,West,270,0.0,-999.0,75,0.00,,,1.04,Wunderground v.1.15,2013-05-07 01:40:00,
2013-05-06 21:45:00,60.0,50.6,29.87,WSW,248,1.0,-999.0,71,0.00,,,1.04,Wunderground v.1.15,2013-05-07 01:45:00,
2013-05-06 21:50:00,60.0,50.6,29.87,WSW,248,1.0,-999.0,71,0.00,,,1.04,Wunderground v.1.15,2013-05-07 01:50:00,
2013-05-06 21:55:00,60.0,50.6,29.87,WSW,248,1.0,-999.0,71,0.00,,,1.04,Wunderground v.1.15,2013-05-07 01:55:00,
2013-05-06 22:00:00,60.0,50.6,29.87,WSW,248,1.0,-999.0,71,0.00,,,1.04,Wunderground v.1.15,2013-05-07 02:00:00,
2013-05-06 22:10:00,60.0,50.6,29.87,WSW,248,1.0,-999.0,71,0.00,,,1.04,Wunderground v.1.15,2013-05-07 02:10:00,
2013-05-06 22:15:00,59.3,50.3,29.88,WSW,248,3.0,-999.0,72,0.00,,,1.04,Wunderground v.1.15,2013-05-07 02:15:00,
2013-05-06 22:20:00,59.3,50.3,29.88,WSW,248,3.0,-999.0,72,0.00,,,1.04,Wunderground v.1.15,2013-05-07 02:20:00,
2013-05-06 22:25:00,59.3,50.3,29.88,WSW,248,3.0,-999.0,72,0.00,,,1.04,Wunderground v.1.15,2013-05-07 02:25:00,
2013-05-06 22:30:00,59.3,50.3,29.88,WSW,248,3.0,-999.0,72,0.00,,,1.04,Wunderground v.1.15,2013-05-07 02:30:00,
2013-05-06 22:35:00,59.3,50.3,29.88,WSW,248,3.0,-999.0,72,0.00,,,1.04,Wunderground v.1.15,2013-05-07 02:35:00,
2013-05-06 22:40:00,59.3,50.3,29.88,WSW,248,3.0,-999.0,72,0.00,,,1.04,Wunderground v.1.15,2013-05-07 02:40:00,
2013-05-06 22:45:00,58.2,50.3,29.88,WSW,248,2.0,-999.0,75,0.00,,,1.04,Wunderground v.1.15,2013-05-07 02:45:00,
2013-05-06 22:50:00,58.2,50.3,29.88,WSW,248,2.0,-999.0,75,0.00,,,1.04,Wunderground v.1.15,2013-05-07 02:50:00,
2013-05-06 22:55:00,58.2,50.3,29.88,WSW,248,2.0,-999.0,75,0.00,,,1.04,Wunderground v.1.15,2013-05-07 02:55:00,
2013-05-06 23:00:00,58.2,50.3,29.88,WSW,248,2.0,-999.0,75,0.00,,,1.04,Wunderground v.1.15,2013-05-07 03:00:00,
2013-05-06 23:05:00,58.2,50.3,29.88,WSW,248,2.0,-999.0,75,0.00,,,1.04,Wunderground v.1.15,2013-05-07 03:05:00,
2013-05-06 23:10:00,58.2,50.3,29.88,WSW,248,2.0,-999.0,75,0.00,,,1.04,Wunderground v.1.15,2013-05-07 03:10:00,
2013-05-06 23:15:00,56.8,50.0,29.89,WSW,248,0.0,-999.0,78,0.00,,,1.04,Wunderground v.1.15,2013-05-07 03:15:00,
2013-05-06 23:20:00,56.8,50.0,29.89,WSW,248,0.0,-999.0,78,0.00,,,1.04,Wunderground v.1.15,2013-05-07 03:20:00,
2013-05-06 23:25:00,56.8,50.0,29.89,WSW,248,0.0,-999.0,78,0.00,,,1.04,Wunderground v.1.15,2013-05-07 03:25:00,
2013-05-06 23:30:00,56.8,50.0,29.89,WSW,248,0.0,-999.0,78,0.00,,,1.04,Wunderground v.1.15,2013-05-07 03:30:00,
2013-05-06 23:35:00,56.8,50.0,29.89,WSW,248,0.0,-999.0,78,0.00,,,1.04,Wunderground v.1.15,2013-05-07 03:35:00,
2013-05-06 23:40:00,56.8,50.0,29.89,WSW,248,0.0,-999.0,78,0.00,,,1.04,Wunderground v.1.15,2013-05-07 03:40:00,
2013-05-06 23:45:00,56.0,49.6,29.89,WSW,248,0.0,-999.0,79,0.00,,,1.04,Wunderground v.1.15,2013-05-07 03:45:00,
2013-05-06 23:50:00,56.0,49.6,29.89,WSW,248,0.0,-999.0,79,0.00,,,1.04,Wunderground v.1.15,2013-05-07 03:50:00,
2013-05-06 23:55:00,56.0,49.6,29.89,WSW,248,0.0,-999.0,79,0.00,,,1.04,Wunderground v.1.15,2013-05-07 03:55:00,